Date String (YYYY-MM-DD hh:mm:ss) UTC,Instrument flags,Ambient pressure (hPa),Sample flow (lpm),Bypass flow (lpm),Sample temperature (°C),Ambient temperature (°C),ASC tube jacket temperature (°C),LED temperature (°C),Box temperature (°C),Sample RH (%),Span deviation,Mass concentration (μg/m³),Mass concentration (μg/m³),Mass concentration (μg/m³)
DateTimeUTC,F1_M11,P_M11,Q1_M11,Q2_M11,T1_M11,T2_M11,T3_M11,T4_M11,T5_M11,U1_M11,ZSPAN_M11,X0_M11,X2_M11,X1_M11
2022-04-01 06:00:00,,0816.5,5.01,0.00,28.2,27.3,00.0,37.2,30.0,08.8,0000.0,0008.29,0003.21,0001.48
2022-04-01 06:01:00,,0816.5,5.01,0.00,28.2,27.3,00.0,37.2,30.0,08.8,0000.0,0008.29,0003.23,0001.50
2022-04-01 06:02:00,,0816.5,5.00,0.00,28.2,27.3,00.0,37.2,30.0,08.8,0000.0,0008.29,0003.23,0001.50
2022-04-01 06:03:00,,0816.5,4.99,0.00,28.2,27.3,00.0,37.2,30.0,08.8,0000.0,0008.17,0003.20,0001.50
2022-04-01 06:04:00,,0816.5,5.01,0.00,28.2,27.3,00.0,37.2,30.0,08.9,0000.0,0007.45,0003.22,0001.51
2022-04-01 06:05:00,,0816.5,5.00,0.00,28.2,27.3,00.0,37.2,30.0,08.7,0000.0,0007.58,0003.26,0001.51
2022-04-01 06:06:00,,0816.7,4.99,0.00,28.2,27.3,00.0,37.2,30.0,08.7,0000.0,0007.37,0003.21,0001.51
2022-04-01 06:07:00,,0816.5,4.99,0.00,28.3,27.3,00.0,37.2,30.0,08.6,0000.0,0007.48,0003.18,0001.51
2022-04-01 06:08:00,,0816.5,5.02,0.00,28.3,27.4,00.0,37.2,30.0,08.6,0000.0,0007.65,0003.18,0001.51
2022-04-01 06:09:00,,0816.5,4.99,0.00,28.3,27.4,00.0,37.2,30.0,08.5,0000.0,0007.54,0003.15,0001.51
2022-04-01 06:10:00,,0816.5,4.99,0.00,28.3,27.3,00.0,37.2,30.0,08.5,0000.0,0007.47,0003.15,0001.51
2022-04-01 06:11:00,,0816.5,5.00,0.00,28.3,27.3,00.0,37.2,30.1,08.5,0000.0,0007.50,0003.15,0001.52
2022-04-01 06:12:00,,0816.5,5.00,0.00,28.3,27.3,00.0,37.2,30.1,08.4,0000.0,0007.49,0003.14,0001.51
2022-04-01 06:13:00,,0816.5,4.99,0.00,28.3,27.3,00.0,37.2,30.0,08.4,0000.0,0007.45,0003.15,0001.51
2022-04-01 06:14:00,,0816.6,5.00,0.00,28.3,27.3,00.0,37.2,30.0,08.4,0000.0,0007.58,0003.18,0001.52
2022-04-01 06:15:00,,0816.5,5.01,0.00,28.3,27.3,00.0,37.2,30.0,08.4,0000.0,0007.71,0003.18,0001.51
2022-04-01 06:16:00,,0816.6,5.00,0.00,28.3,27.3,00.0,37.2,30.0,08.4,0000.0,0007.73,0003.18,0001.52
2022-04-01 06:17:00,,0816.4,5.00,0.00,28.3,27.3,00.0,37.2,30.0,08.4,0000.0,0007.71,0003.17,0001.52
2022-04-01 06:18:00,,0816.7,5.01,0.00,28.3,27.3,00.0,37.2,30.0,08.3,0000.0,0007.66,0003.19,0001.53
2022-04-01 06:19:00,,0816.4,4.99,0.00,28.3,27.3,00.0,37.2,30.0,08.3,0000.0,0007.48,0003.20,0001.54
2022-04-01 06:20:00,,0816.5,5.01,0.00,28.3,27.3,00.0,37.2,30.0,08.3,0000.0,0007.54,0003.20,0001.54
2022-04-01 06:21:00,,0816.4,5.01,0.00,28.2,27.3,00.0,37.2,30.0,08.3,0000.0,0007.71,0003.20,0001.54
2022-04-01 06:22:00,,0816.4,4.99,0.00,28.2,27.3,00.0,37.2,30.0,08.3,0000.0,0007.66,0003.21,0001.54
2022-04-01 06:23:00,,0816.4,5.01,0.00,28.2,27.3,00.0,37.2,30.0,08.4,0000.0,0008.00,0003.27,0001.55
2022-04-01 06:24:00,,0816.4,5.00,0.00,28.2,27.3,00.0,37.2,30.0,08.5,0000.0,0008.19,0003.26,0001.56
2022-04-01 06:25:00,,0816.4,5.00,0.00,28.2,27.3,00.0,37.2,30.0,08.6,0000.0,0008.39,0003.32,0001.56
2022-04-01 06:26:00,,0816.4,5.01,0.00,28.2,27.3,00.0,37.2,30.0,08.7,0000.0,0008.34,0003.34,0001.56
2022-04-01 06:27:00,,0816.4,4.99,0.00,28.2,27.3,00.0,37.2,30.0,08.9,0000.0,0008.41,0003.36,0001.54
2022-04-01 06:28:00,,0816.4,5.01,0.00,28.2,27.3,00.0,37.2,30.0,08.8,0000.0,0008.79,0003.46,0001.57
2022-04-01 06:29:00,,0816.4,4.99,0.00,28.2,27.3,00.0,37.2,29.9,08.9,0000.0,0008.87,0003.49,0001.56
2022-04-01 06:30:00,,0816.4,4.98,0.00,28.2,27.3,00.0,37.2,30.0,08.9,0000.0,0008.85,0003.49,0001.57
2022-04-01 06:31:00,,0816.5,5.02,0.00,28.2,27.3,00.0,37.2,30.0,09.0,0000.0,0008.85,0003.51,0001.58
2022-04-01 06:32:00,,0816.5,4.99,0.00,28.2,27.3,00.0,37.2,29.9,09.1,0000.0,0008.74,0003.52,0001.60
2022-04-01 06:33:00,,0816.4,4.99,0.00,28.2,27.3,00.0,37.2,30.0,09.1,0000.0,0008.71,0003.50,0001.62
2022-04-01 06:34:00,,0816.5,5.02,0.00,28.2,27.3,00.0,37.2,30.0,09.1,0000.0,0008.27,0003.41,0001.62
2022-04-01 06:35:00,,0816.6,4.99,0.00,28.2,27.3,00.0,37.2,30.0,09.2,0000.0,0007.97,0003.39,0001.62
2022-04-01 06:36:00,,0816.5,5.01,0.00,28.2,27.3,00.0,37.2,30.0,09.2,0000.0,0007.67,0003.34,0001.60
2022-04-01 06:37:00,,0816.5,4.99,0.00,28.2,27.3,00.0,37.2,30.0,09.3,0000.0,0007.64,0003.30,0001.59
2022-04-01 06:38:00,,0816.5,4.99,0.00,28.2,27.3,00.0,37.2,30.0,09.3,0000.0,0007.60,0003.28,0001.60
2022-04-01 06:39:00,,0816.7,5.02,0.00,28.2,27.3,00.0,37.2,30.0,09.3,0000.0,0007.30,0003.23,0001.60
2022-04-01 06:40:00,,0816.5,5.00,0.00,28.2,27.3,00.0,37.2,30.0,09.3,0000.0,0007.18,0003.22,0001.61
2022-04-01 06:41:00,,0816.4,4.99,0.00,28.2,27.3,00.0,37.2,30.0,09.3,0000.0,0007.30,0003.25,0001.62
2022-04-01 06:42:00,,0816.4,5.01,0.00,28.2,27.3,00.0,37.2,30.0,09.3,0000.0,0007.44,0003.27,0001.62
2022-04-01 06:43:00,,0816.4,5.00,0.00,28.2,27.3,00.0,37.2,30.0,09.3,0000.0,0007.49,0003.30,0001.62
2022-04-01 06:44:00,,0816.4,5.01,0.00,28.2,27.3,00.0,37.2,29.9,09.3,0000.0,0007.57,0003.32,0001.62
2022-04-01 06:45:00,,0816.5,4.99,0.00,28.2,27.3,00.0,37.2,30.0,09.4,0000.0,0007.92,0003.35,0001.62
2022-04-01 06:46:00,,0816.4,5.02,0.00,28.2,27.3,00.0,37.2,29.9,09.4,0000.0,0008.71,0003.40,0001.63
2022-04-01 06:47:00,,0816.4,4.99,0.00,28.2,27.3,00.0,37.2,29.9,09.3,0000.0,0008.93,0003.48,0001.63
2022-04-01 06:48:00,,0816.6,5.00,0.00,28.2,27.3,00.0,37.2,29.9,09.3,0000.0,0008.83,0003.48,0001.65
2022-04-01 06:49:00,,0816.5,5.00,0.00,28.2,27.3,00.0,37.2,30.0,09.3,0000.0,0008.95,0003.51,0001.66
2022-04-01 06:50:00,,0816.5,4.97,0.00,28.2,27.3,00.0,37.2,30.0,09.4,0000.0,0009.76,0003.51,0001.66
2022-04-01 06:51:00,,0816.5,5.00,0.00,28.2,27.3,00.0,37.2,30.0,09.4,0000.0,0009.84,0003.53,0001.66
2022-04-01 06:52:00,,0816.5,5.01,0.00,28.2,27.3,00.0,37.2,30.0,09.3,0000.0,0009.67,0003.48,0001.66
2022-04-01 06:53:00,,0816.5,5.00,0.00,28.2,27.2,00.0,37.2,30.0,09.4,0000.0,0009.50,0003.44,0001.66
2022-04-01 06:54:00,,0816.6,4.99,0.00,28.2,27.2,00.0,37.2,29.9,09.3,0000.0,0009.58,0003.44,0001.66
2022-04-01 06:55:00,,0816.5,5.01,0.00,28.2,27.2,00.0,37.2,29.9,09.3,0000.0,0009.74,0003.44,0001.66
2022-04-01 06:56:00,,0816.5,4.99,0.00,28.1,27.2,00.0,37.2,29.9,09.2,0000.0,0009.87,0003.40,0001.66
2022-04-01 06:57:00,,0816.5,5.02,0.00,28.1,27.2,00.0,37.1,29.9,09.1,0000.0,0008.94,0003.37,0001.65
2022-04-01 06:58:00,,0816.5,4.98,0.00,28.1,27.2,00.0,37.1,29.9,09.0,0000.0,0009.23,0003.35,0001.66
2022-04-01 06:59:00,,0816.5,5.02,0.00,28.1,27.2,00.0,37.1,29.9,09.0,0000.0,0010.40,0003.31,0001.65
